Weather History for Fort Drum, NY

Change the Weather History Date:

Sunday, September 9, 2012

  Actual Average Record
Temperature  
Mean Temperature 56 °F -  
Max Temperature 67 °F 71 °F 91 °F (2002)
Min Temperature 48 °F 52 °F 41 °F (2013)
Degree Days  
Heating Degree Days 9    
Growing Degree Days 6 (Base 50)    
Moisture  
Dew Point 50 °F    
Average Humidity 81    
Maximum Humidity 100    
Minimum Humidity 55    
Precipitation  
Precipitation 0.00 in - - ()
Sea Level Pressure  
Sea Level Pressure 29.88 in    
Wind  
Wind Speed 2 mph (West)    
Max Wind Speed 6 mph    
Max Gust Speed -    
Visibility 10 miles    
Events      
Averages and records for this station are not official NWS values.
T = Trace of Precipitation, MM = Missing Value Source: NWS Daily Summary

Daily Weather History Graph

Daily Weather History Graph

Search for Another Location

Airport:

Trip Planner

Search our weather history database for the weather conditions in past years. The results will help you decide how hot, cold, wet, or windy it might be!

Date:

Astronomy

Sep. 09, 2012 Rise Set
Actual Time 6:35 AM EDT 7:23 PM EDT
Civil Twilight 6:06 AM EDT 7:52 PM EDT
Nautical Twilight 5:31 AM EDT 8:27 PM EDT
Astronomical Twilight 4:55 AM EDT 9:03 PM EDT
Moon No Moon Rise 3:16 PM EDT (9/9)
Length of Visible Light 13h 46m
Length of Day
12h 47m
Last Quarter, 39% of the Moon is Illuminated
Sep 9
Last Quarter
Sep 15
New
Sep 22
First Quarter
Sep 29
Full
Oct 8
Last Quarter

Hourly Weather History & Observations

Time (EDT) Temp. Dew Point Humidity Pressure Visibility Wind Dir Wind Speed Gust Speed Precip Events Conditions
12:55 AM 50.0 °F 50.0 °F 100% 29.79 in 10.0 mi SSW 4.6 mph - N/A   Clear
1:55 AM 52.2 °F 50.0 °F 92% 29.79 in 10.0 mi West 3.5 mph - N/A   Clear
2:55 AM 50.5 °F 50.4 °F 99% 29.79 in 10.0 mi WSW 3.5 mph - N/A   Clear
3:55 AM 48.0 °F 47.8 °F 99% 29.80 in 10.0 mi Calm Calm - N/A   Clear
4:55 AM 49.1 °F 49.1 °F 100% 29.81 in 10.0 mi Calm Calm - N/A   Mostly Cloudy
5:55 AM 49.1 °F 49.1 °F 100% 29.82 in 10.0 mi Calm Calm - N/A   Partly Cloudy
6:55 AM 48.6 °F 48.4 °F 99% 29.85 in 10.0 mi Calm Calm - N/A   Clear
7:55 AM 52.0 °F 51.6 °F 99% 29.86 in 10.0 mi Calm Calm - N/A   Clear
8:55 AM 56.7 °F 50.2 °F 79% 29.86 in 10.0 mi Calm Calm - N/A   Clear
9:55 AM 58.8 °F 50.4 °F 73% 29.88 in 10.0 mi Calm Calm - N/A   Clear
10:28 AM 60.8 °F 50.0 °F 68% 29.89 in 10.0 mi Calm Calm - N/A   Mostly Cloudy
10:55 AM 61.0 °F 51.4 °F 71% 29.89 in 10.0 mi Variable 3.5 mph - N/A   Overcast
11:21 AM 62.6 °F 51.8 °F 68% 29.89 in 10.0 mi Calm Calm - N/A   Scattered Clouds
11:55 AM 64.8 °F 52.0 °F 63% 29.89 in 10.0 mi Calm Calm - N/A   Scattered Clouds
12:55 PM 63.9 °F 51.8 °F 65% 29.89 in 10.0 mi Variable 4.6 mph - N/A   Partly Cloudy
1:55 PM 63.7 °F 52.0 °F 66% 29.89 in 10.0 mi Variable 3.5 mph - N/A   Mostly Cloudy
5:55 PM 64.0 °F 47.5 °F 55% 29.90 in 10.0 mi WNW 5.8 mph - N/A   Clear
6:55 PM 61.7 °F 49.5 °F 64% 29.91 in 10.0 mi West 3.5 mph - N/A   Clear
7:55 PM 57.0 °F 49.5 °F 76% 29.93 in 10.0 mi Calm Calm - N/A   Clear
8:55 PM 56.1 °F 51.3 °F 84% 29.94 in 10.0 mi Calm Calm - N/A   Mostly Cloudy
9:55 PM 55.6 °F 51.4 °F 86% 29.95 in 10.0 mi Calm Calm - N/A   Overcast
10:55 PM 56.8 °F 49.8 °F 77% 29.96 in 10.0 mi Calm Calm - N/A   Overcast
11:55 PM 55.4 °F 51.4 °F 87% 29.97 in 10.0 mi Calm Calm - N/A   Overcast